Погода в Ургенче

Погода в Ургенче : погода сейчас, прогноз погоды и архив. Всё, что Вы хотите узнать о погоде в Ургенче!

Поиск расширенной информации на нашем сайте:

Другие новости

Новости СМИ2

Главная страница сайта

Новости сайта

02.10.2013

Напоминаем, что на нашем новом сайте вы можете получить высокодетализированные прогнозы погоды по пунктам России, СНГ и мира (включающие важные для авиации метеовеличины, такие как направление и скорость ветра, видимость, явления погоды, количество и форма облачности, нижняя и верхняя граница облачности), а также ознакомиться с разнообразными материалами по авиационной метеорологии и подборкой полезных ссылок на эту тему.

Сайт Метеоцентр.Азия посвящён разработке технологий оптимизации авиаметеорологического обслуживания, включая проектирование и перспективное создание нескольких автоматизированных авиаметеорологических систем:
- система выпуска высокодетальных прогностических карт явлений погоды для нижнего воздушного пространства по России и ближнему зарубежью;
- система верификации прогнозов TAF (выпускаемых синоптиками официальных АМСГ РФ и ближнего зарубежья) и AUTOTAF (выпускаемых сайтом Метеоцентр.Азия) - выявление ошибок, онлайн-сопоставление с фактической погодой METAR, автоматическое внесение коррективов в прогнозы при резком отклонении фактической погоды от прогноза, подсчёт оправдываемости прогнозов по элементам и в целом;
- система обработки, анализа и отображения авиаметеорологической информации для применения провайдерами метеорологической информации.

Рекомендуем: туроператоры по абхазии

Погода в Ургенче - сегодня

Время (UTC), дата Ветер
(°,м/с) 
Видим.   Явления Облачность Т
(°С)
Тd
(°С)
f(%) Тe
(°С)
Pmin
(гПа)
dP
(гПа)
Po
(мм)
O2
(г/м3)
Тmin Tmax R s Состояние
почвы
03 23.04.17 310 (СЗ) 10 км    3/0 верхняя 
[Ci fib]
+16 +4.4 46 +16  1020.6  2.5  756  287  +11.5         
06 23.04.17 050 (СВ) 4000 м    3/0 верхняя 
[Ci fib]
+17.9 +5.6 44 +18  1022.4  1.8  758  286  +11.5         
09 23.04.17 050 (СВ) 10 км    3/0 верхняя 
[Ci fib]
+22.6 +5.1 32 +23  1020.6  -1.5  757  281           
12 23.04.17 360 (С) 10 км    5/0 верхняя 
[Ci fib]
+25 +4.8 27 +25  1018.9  -1.6  755  278           
15 23.04.17 030 (СВ) 10 км    5/0 верхняя 
[Ci fib]
+19.6 +5.6 40 +20  1018.3  -0.8  755  283    +25       
18 23.04.17 060 (СВ) 10 км    3/0 верхняя 
[Ci fib]
+17.2 +5.1 45 +17  1017.6  -0.8  754  285    +25       
21 23.04.17 070 (В) 10 км    ясно 
+14.9 +6.2 56 +16  1015.9  -1.8  753  287           
00 24.04.17 110 (В) 10 км    ясно 
+14 +7 63 +14  1013.9  -1.9  751  287           
03 24.04.17 130 (ЮВ) 10 км    ясно 
+17.4 +7 50 +18  1013.8  751  283  +12.6         
06 24.04.17 120 (ЮВ) 10 км    ясно 
+26.8 +5.8 26 +27  1012.5  -0.9  751  275  +12.6         
09 24.04.17 130 (ЮВ) 10 км    4/0 верхняя 
[Ci fib]
+30.8 +3 17 +31  1010.4  -1  749  271           
12 24.04.17 120 (ЮВ) 4000 м    8/0 верхняя 
[Ci fib]
+30.8 +3.8 18 +31  1009.1  -1.3  748  270           
15 24.04.17 100 (В) 4000 м    9/0 средняя, верхняя 
[Ac trans|Ci fib]
+24.1 +6.8 33 +24  1009.2  -0.1  748  276    +32       
18 24.04.17 130 (ЮВ) 4000 м    9/0 средняя, верхняя 
[Ac trans|Ci fib]
+20 +4.8 37 +20  1009.9  0.5  749  280    +32       
21 24.04.17 130 (ЮВ) 4000 м    9/0 средняя, верхняя 
[Ac trans|Ci fib]
+18.3 +5.6 43 +19  1010.2  0.2  749  282           
00 25.04.17 140 (ЮВ) 4000 м    9/0 средняя, верхняя 
[Ac trans|Ci fib]
+16.2 +6.4 52 +17  1010.3  0.1  749  284           
03 25.04.17 230 (ЮЗ) 4000 м    9/0 средняя, верхняя 
[Ac trans|Ci fib]
+18.8 +5.3 41 +19  1011.5  1.2  750  282  +15.2         
06 25.04.17 300 (СЗ) 4000 м    10/0 верхняя 
[Ci fib]
+24.3 +9.4 39 +25  1013.2  751  276  +15.3         
09 25.04.17 300 (СЗ) 4000 м    10/0 верхняя 
[Ci fib]
+25 +10.7 41 +27  1013.4  0.2  751  275           
12 25.04.17 320 (СЗ) 10 км    10/0 верхняя 
[Ci fib]
+27.2 +9 32 +27  1012.9  -0.4  751  274           
15 25.04.17 320 (СЗ) 10 км    10/0 средняя, верхняя 
[Ac trans|Ci fib]
+22.6 +10.2 45 +24  1015.1  1.9  752  278    +27.3       
18 25.04.17 310 (СЗ) 4000 м    9/0 средняя, верхняя 
[Ac trans|Ci fib]
+17.4 +6.2 48 +17  1017.4  1.9  754  285    +27.3       
21 25.04.17 300 (СЗ) 10 км    6/0 средняя, верхняя 
[Ac trans|Ci fib]
+14.4 +6.1 57 +14  1017.9  0.6  754  288           
00 26.04.17 310 (СЗ) 10 км    6/0 средняя, верхняя 
[Ac trans|Ci fib]
+12.9 +6.2 64 +12  1019  755  290           
06 26.04.17 330 (СЗ) 10 км    9/3 2000 м кучево-дожд., средняя 
[Cb calv|Ac As]
+16.4 +3.6 42 +16  1024.6  2.6  759  288  +12.7         
Время (UTC), дата Ветер
(°,м/с) 
Видим.   Явления Облачность Т
(°С)
Тd
(°С)
f(%) Тe
(°С)
Pmin
(гПа)
dP
(гПа)
Po
(мм)
O2
(г/м3)
Тmin Tmax R s Состояние
почвы

Для получения пояснительной информации подведите курсор к названию столбца.

ПОГОДА в Ургенче - архив

Всё, что Вы хотите узнать о погоде в Ургенче - удобно и подробно!

Выберите нужную дату (начиная с 1 января 2015* года) и нажмите кнопку "Найти".
Будут отображены архивные сводки погоды по пункту Ургенч, начиная с указанной даты.


Отображать данные в формате CSV (для использования в таблицах Excel)


Внимание! Наш архив погоды предназначен исключительно для личного некоммерческого использования в познавательных целях. Если Вам необходимы официальные справки о состоянии погоды (для производственных, юридических, коммерческих и т.п. целей), обращайтесь в органы Росгидромета.

*Примечание: данная дата относится к архиву по метеостанциям СССР (Россия, СНГ, Балтия).
Архив по метеостанциям Зарубежной Европы и Азии (кроме Китая) хранится 10 дней, по другим регионам земного шара (Китай, Африка, Америка, Австралия, Океания) - 1 день.

Ургенч - район местоположения метеостанции


Название, широта, долгота, высота метеостанции:
Ургенч 41.6°ш. 60.6°д. 101 м над ур. моря [Узбекистан]

Дополнительная информация

В oтличие oт бoльшинства пoгoдных сайтoв мы публикуем пoдрoбную метеoинфoрмацию в детальнoм прoфессиoнальнoм фoрмате.

Характеристики температуры и влажнoсти вoздуха измеряются на высoте 2 м в тени вдали oт зданий и деревьев.
Скoрoсть ветра измеряется на высoте 10 м (на урoвне рoста челoвека скoрoсть ветра ниже в 1.5-2 раза). Если метеoстанция нахoдится в гoрoде или в лесу, тo скoрoсть ветра занижена на 2-4 м/с пo сравнению с oткрытым местoм. Скoрoсть ветра над акватoриями крупных рек и oзёр, а также на вершинах хoлмoв на 2-5 м/с выше, чем в oбычных услoвиях.
Атмoсфернoе давление в разных тoчках местнoсти мoжет значительнo oтличаться oт давления на метеoстанции, в зависимoсти oт услoвий рельефа (при пoдъёме на 10 м давление пoнижается примернo на 1 мм рт.ст.).